Location: Gravenhurst
(44.9196°N, 79.3742°W)
Time: 15:30:59
(UTC-05:00)

Envisat - Pass Details

Date: 24 October 2019
Orbit: 764 x 766 km, 98.1° (Epoch: 22 November)

Event Time Altitude Azimuth Distance (km) Brightness Sun altitude
Rises 19:20:55 0° 168° (SSE) 3,219 6.2 -11.8°
Reaches altitude 10° 19:23:13 10° 169° (S) 2,297 5.4 -12.2°
Maximum altitude 19:28:17 80° 256° (WSW) 782 3.1 -13.1°
Drops below altitude 10° 19:33:24 10° 345° (NNW) 2,313 5.6 -14.0°
Sets 19:35:43 0° 346° (NNW) 3,244 6.4 -14.4°
